Date,TemperatureHighF,TemperatureAvgF,TemperatureLowF,DewpointHighF,DewpointAvgF,DewpointLowF,HumidityHigh,HumidityAvg,HumidityLow,PressureMaxIn,PressureMinIn,WindSpeedMaxMPH,WindSpeedAvgMPH,GustSpeedMaxMPH,PrecipitationSumIn
2013-1-1,77,65,54,66,56,46,75,73,71,30.10,29.93,12,1,26,0.00
2013-1-2,78,68,60,68,59,52,75,74,71,29.95,29.87,8,2,19,0.00
2013-1-3,80,68,61,70,59,53,76,74,71,30.03,29.90,9,2,19,0.03
2013-1-4,65,61,58,57,53,50,75,75,73,30.15,30.01,7,3,12,0.02
2013-1-5,77,67,58,67,58,50,75,74,72,30.17,30.04,8,2,14,0.00
2013-1-6,81,69,63,71,61,55,76,74,72,30.08,29.94,11,2,22,0.00
2013-1-7,69,65,61,60,57,53,75,74,73,30.09,29.98,10,4,17,0.05
2013-1-8,83,71,61,72,62,53,75,74,71,30.09,29.99,9,3,15,0.00
2013-1-9,86,76,69,75,66,61,75,73,70,30.15,30.04,12,4,21,0.00
2013-1-10,84,74,67,73,65,58,75,73,70,30.16,30.07,15,5,24,0.00
2013-1-11,84,72,64,73,63,55,75,73,70,30.15,30.01,13,2,26,0.00
2013-1-12,83,72,64,72,63,56,75,73,71,30.06,29.95,12,2,19,0.00
2013-1-13,82,72,63,72,62,55,75,73,70,30.04,29.94,6,1,15,0.00
2013-1-14,81,70,62,70,61,53,75,73,70,30.07,29.98,7,1,19,0.00
2013-1-15,81,69,60,70,60,51,75,73,71,30.03,29.93,6,1,16,0.00
2013-1-16,81,71,62,71,62,54,76,73,70,29.99,29.88,6,1,15,0.00
2013-1-17,73,64,58,64,55,48,76,74,72,30.03,29.89,15,6,31,0.04
2013-1-18,66,55,43,56,46,34,75,73,71,30.19,30.03,12,6,23,0.00
2013-1-19,74,65,54,65,56,46,74,73,72,30.15,30.00,11,4,22,0.00
2013-1-20,76,67,61,66,58,53,75,74,72,30.05,29.91,6,1,12,0.00
2013-1-21,75,65,61,65,57,52,74,73,72,29.99,29.90,10,2,19,0.01
2013-1-22,67,60,52,56,50,43,73,71,68,30.16,29.95,10,3,16,0.00
2013-1-23,71,57,45,60,48,37,73,71,67,30.24,30.15,6,1,13,0.00
2013-1-24,73,58,44,62,49,36,75,72,69,30.23,30.12,6,1,14,0.00
2013-1-25,76,61,49,65,52,42,75,73,69,30.20,30.07,7,1,14,0.01
2013-1-26,74,62,49,64,53,42,75,73,70,30.17,30.06,6,1,15,0.00
2013-1-27,79,65,52,68,56,45,76,73,69,30.18,30.09,10,2,19,0.02
2013-1-28,83,70,60,72,61,52,75,73,69,30.20,30.08,13,2,21,0.00
2013-1-29,84,71,60,73,62,52,76,73,70,30.12,29.98,11,2,24,0.00
2013-1-30,80,72,65,70,63,57,74,73,71,29.98,29.81,13,4,33,0.00
2013-1-31,73,59,49,64,50,41,75,72,68,30.13,29.81,16,4,27,0.13
2013-2-1,69,55,42,58,45,34,73,70,67,30.24,30.11,10,2,18,0.00
2013-2-2,73,57,43,62,48,35,74,72,68,30.18,30.04,7,1,13,0.00
2013-2-3,71,58,47,60,49,39,74,73,70,30.10,29.98,10,2,20,0.00
2013-2-4,71,56,43,60,47,35,75,72,68,30.03,29.92,8,1,19,0.03
2013-2-5,76,61,47,65,52,39,74,72,70,29.98,29.89,7,1,16,0.00
2013-2-6,80,67,56,69,58,48,74,73,70,30.00,29.91,8,1,15,0.00
2013-2-7,81,70,61,70,61,53,75,73,70,29.95,29.79,15,3,28,0.02
2013-2-8,78,69,60,68,60,51,75,73,70,29.97,29.78,12,4,24,0.00
2013-2-9,78,65,56,67,56,48,75,72,69,30.07,29.95,10,3,17,0.01
2013-2-10,81,70,61,70,60,53,74,72,70,30.13,30.01,16,6,29,0.00
2013-2-11,81,70,59,71,61,51,75,73,71,30.09,29.97,11,2,23,0.00
2013-2-12,80,71,62,70,62,54,76,74,72,29.99,29.84,13,3,28,0.01
2013-2-13,81,73,62,71,64,54,75,74,72,29.88,29.75,20,7,35,0.02
2013-2-14,67,63,61,58,55,52,75,74,73,29.92,29.81,10,2,20,0.23
2013-2-15,70,62,58,61,54,50,76,74,72,29.95,29.84,4,1,10,0.30
2013-2-16,68,59,53,58,50,45,75,72,70,30.00,29.82,15,7,27,0.00
2013-2-17,56,50,40,46,40,31,71,69,68,30.23,30.00,12,4,25,0.00
2013-2-18,70,54,35,60,44,27,74,71,68,30.24,30.09,13,3,23,0.00
2013-2-19,76,64,50,66,55,42,74,73,70,30.10,29.98,14,3,26,0.00
2013-2-20,79,67,59,69,58,51,76,74,71,30.01,29.89,9,1,17,0.01
2013-2-21,81,69,58,71,60,50,75,73,71,30.00,29.87,10,2,18,0.00
2013-2-22,84,72,61,73,63,53,76,73,71,29.96,29.87,13,3,23,0.00
2013-2-23,82,74,68,72,65,60,76,74,72,29.90,29.78,18,5,33,0.00
2013-2-24,82,74,68,72,65,60,76,74,71,29.86,29.78,14,4,23,0.02
2013-2-25,84,74,67,73,65,59,76,74,71,29.79,29.67,11,2,27,0.00
2013-2-26,79,73,66,69,64,58,75,74,72,29.78,29.60,16,5,33,0.41
2013-2-27,73,66,58,63,57,50,74,73,71,29.87,29.76,7,2,16,0.00
2013-2-28,71,63,56,62,54,47,74,72,70,29.89,29.81,10,3,20,0.00
2013-3-1,61,58,54,51,49,45,73,72,70,29.92,29.81,10,4,21,0.00
2013-3-2,59,55,47,50,46,39,73,71,70,29.97,29.88,14,5,29,0.00
2013-3-3,55,50,42,46,41,33,72,71,70,30.05,29.87,14,6,26,0.00
2013-3-4,66,52,40,55,44,32,74,71,68,30.12,30.01,9,2,16,0.00
2013-3-5,72,59,42,62,50,35,75,73,70,30.06,29.94,13,4,23,0.00
2013-3-6,67,60,53,58,51,44,74,72,69,30.03,29.86,16,8,32,0.09
2013-3-7,64,53,44,53,44,36,73,71,69,30.12,30.02,9,3,20,0.00
2013-3-8,74,62,46,62,52,38,74,71,67,30.12,30.01,7,3,16,0.00
2013-3-9,77,71,51,65,61,42,74,69,68,30.10,30.00,8,5,15,0.00
2013-3-10,80,76,65,68,65,54,72,69,69,30.06,29.92,15,7,29,0.00
2013-3-11,78,76,66,68,66,56,73,70,69,29.99,29.80,16,9,29,0.00
2013-3-12,75,70,62,65,61,53,74,72,71,29.94,29.75,12,10,23,0.00
2013-3-13,74,64,56,62,54,47,73,71,67,30.08,29.93,11,5,21,0.00
2013-3-14,68,58,52,57,48,42,74,70,67,30.16,30.05,11,4,21,0.00
2013-3-15,72,56,43,61,47,36,75,71,67,30.18,30.04,8,2,15,0.00
2013-3-16,76,61,46,65,51,39,74,72,68,30.09,29.97,12,2,21,0.00
2013-3-17,75,64,51,65,55,43,75,73,70,30.02,29.90,11,2,21,0.00
2013-3-18,77,68,59,67,59,51,75,74,72,29.93,29.76,9,2,23,0.07
2013-3-19,84,71,64,74,62,56,75,73,70,29.90,29.78,10,1,19,0.01
2013-3-20,74,67,60,64,59,52,75,74,71,29.86,29.70,17,4,32,0.30
2013-3-21,70,61,52,58,51,43,75,71,66,29.88,29.77,8,3,18,0.00
2013-3-22,78,63,46,68,54,38,75,73,70,29.89,29.77,9,2,18,0.20
2013-3-23,82,73,66,72,64,57,76,75,72,29.86,29.69,15,5,28,0.01
2013-3-24,80,74,70,71,66,62,75,75,73,29.72,29.55,22,8,37,0.04
2013-3-25,71,64,54,63,55,45,75,72,68,29.95,29.64,13,6,25,0.00
2013-3-26,58,54,49,49,45,40,73,71,69,30.14,29.93,16,7,33,0.00
2013-3-27,60,50,42,49,41,34,73,71,69,30.21,30.11,10,3,20,0.00
2013-3-28,71,55,41,60,46,33,75,71,66,30.19,30.08,10,2,20,0.00
2013-3-29,76,60,46,65,51,39,74,71,67,30.21,30.07,10,2,23,0.00
2013-3-30,75,63,50,64,54,42,74,72,69,30.14,30.03,12,3,23,0.00
2013-3-31,80,68,56,70,58,48,74,72,69,30.07,29.91,13,3,23,0.00
2013-4-1,80,71,64,70,62,55,75,74,71,29.93,29.86,16,5,27,0.00
2013-4-2,82,71,64,71,62,56,76,73,70,29.98,29.89,7,2,15,0.06
2013-4-3,86,73,62,75,64,54,75,73,70,29.96,29.82,14,4,22,0.00
2013-4-4,73,70,66,64,62,58,75,75,74,29.97,29.75,13,2,25,2.77
2013-4-5,73,70,67,64,61,59,75,74,71,29.82,29.71,13,6,26,0.05
2013-4-8,85,78,68,74,68,59,74,71,69,30.00,29.92,9,1,15,0.00
2013-4-9,84,73,62,73,64,54,75,73,70,30.03,29.93,11,3,20,0.00
2013-4-10,87,74,64,76,65,55,75,73,70,29.99,29.84,11,3,25,0.01
2013-4-11,88,78,70,77,68,61,75,73,71,29.87,29.70,10,3,24,0.02
2013-4-12,82,77,73,72,68,65,75,74,73,29.81,29.70,16,5,30,0.00
2013-4-13,87,76,70,76,67,62,75,73,70,29.86,29.77,8,1,15,0.00
2013-4-14,86,77,70,76,68,61,75,73,71,29.90,29.73,17,6,29,0.00
2013-4-15,89,78,68,78,68,59,74,72,70,29.95,29.82,7,1,17,0.00
2013-4-16,91,79,69,80,70,61,75,73,70,30.01,29.90,10,3,19,0.00
2013-4-17,88,77,68,76,68,59,75,72,69,30.01,29.89,9,4,20,0.00
2013-4-18,86,77,67,75,68,59,75,73,70,29.93,29.82,11,3,18,0.03
2013-4-19,88,79,71,76,69,63,75,73,70,29.89,29.81,15,4,26,0.12
2013-4-20,77,73,66,67,64,58,75,74,72,30.01,29.85,7,3,15,0.22
2013-4-21,85,72,62,74,63,54,75,73,71,30.01,29.88,8,4,15,0.04
2013-4-22,81,73,68,71,64,60,75,74,72,29.97,29.85,8,2,13,0.89
2013-4-23,84,74,67,74,65,59,75,72,70,29.98,29.88,9,5,15,0.00
2013-4-24,86,73,62,75,63,54,75,73,69,30.02,29.94,9,2,18,0.00
2013-4-25,87,74,64,76,65,56,75,73,70,30.09,29.97,9,2,17,0.00
2013-4-26,87,76,64,76,67,56,74,72,69,30.12,30.02,8,2,16,0.00
2013-4-27,85,76,68,74,67,59,75,72,70,30.10,29.95,9,4,19,0.00
2013-4-28,86,76,64,75,66,56,75,72,69,30.00,29.84,11,3,20,0.00
2013-4-29,85,76,66,74,67,58,74,72,70,29.90,29.78,14,3,23,0.00
2013-4-30,87,76,68,76,67,60,75,73,70,29.88,29.78,11,2,19,0.00
2013-5-1,75,70,67,67,62,59,75,75,74,29.88,29.80,9,2,22,1.66
2013-5-2,78,72,67,69,63,59,75,74,73,29.85,29.69,7,2,13,0.56
2013-5-3,82,74,67,72,65,59,75,74,71,29.72,29.60,12,2,19,0.01
2013-5-4,78,73,68,69,64,60,75,74,72,29.70,29.57,15,4,28,0.00
2013-5-5,76,70,65,65,60,56,75,72,69,29.84,29.68,11,6,23,0.01
2013-5-6,75,69,63,65,60,54,74,72,71,29.90,29.79,10,3,21,0.00
2013-5-7,76,68,60,66,59,52,75,73,71,29.94,29.86,11,3,23,0.00
2013-5-8,78,70,62,68,61,54,75,73,70,30.02,29.92,10,2,21,0.00
2013-5-9,86,73,61,74,64,53,75,73,69,30.04,29.95,9,1,17,0.00
2013-5-10,89,76,65,78,67,57,76,73,70,30.02,29.89,12,3,22,0.00
2013-5-11,87,78,71,76,69,62,75,74,71,29.94,29.87,14,4,24,0.00
2013-5-12,85,78,72,75,69,63,76,73,71,29.93,29.83,13,4,23,0.00
2013-5-13,84,75,65,73,65,56,75,72,69,30.01,29.89,8,2,17,0.00
2013-5-14,84,72,58,72,61,50,73,71,67,30.09,29.98,8,2,18,0.00
2013-5-15,87,74,61,75,64,53,74,71,68,30.09,29.95,9,2,17,0.00
2013-5-16,88,74,62,76,65,54,75,72,68,30.01,29.89,7,1,18,0.00
2013-5-17,87,76,65,76,67,56,74,72,69,29.98,29.91,8,1,17,0.00
2013-5-18,89,78,68,77,68,60,75,72,70,29.99,29.90,8,2,18,0.00
2013-5-19,89,79,69,78,69,61,75,72,70,29.98,29.87,7,1,18,0.00
2013-5-20,91,77,70,80,68,61,75,73,70,29.96,29.83,16,1,33,0.66
2013-5-21,88,76,68,77,66,60,76,74,70,29.92,29.80,13,2,22,0.62
2013-5-22,86,77,68,76,68,60,75,73,71,29.85,29.77,9,1,20,0.01
2013-5-23,87,78,70,77,69,62,75,73,70,29.90,29.80,8,2,19,0.00
2013-5-24,90,81,72,79,71,63,75,73,70,29.95,29.86,9,2,20,0.00
2013-5-25,90,80,71,78,70,62,75,72,69,30.04,29.92,10,4,19,0.00
2013-5-26,87,76,64,75,66,56,75,71,68,30.08,29.98,8,3,15,0.00
2013-5-27,89,78,66,78,68,57,74,72,69,30.05,29.92,9,4,16,0.00
2013-5-28,90,78,70,79,68,62,75,73,70,30.01,29.89,14,6,25,0.01
2013-5-29,87,78,72,76,68,64,75,73,71,29.97,29.89,15,6,28,0.05
2013-5-30,87,79,73,76,70,64,75,73,71,29.95,29.87,18,8,33,0.00
2013-5-31,86,78,73,76,68,64,75,74,72,29.96,29.88,15,6,27,0.12
2013-6-1,87,78,74,77,69,65,75,74,72,29.92,29.83,12,2,21,1.23
2013-6-2,87,79,74,77,70,66,76,74,72,29.87,29.78,11,1,19,0.93
2013-6-3,83,76,74,73,68,66,76,75,73,29.84,29.78,8,1,21,0.21
2013-6-7,85,81,77,75,72,68,74,73,72,29.84,29.78,11,4,18,0.00
2013-6-8,87,78,72,77,69,64,76,74,72,29.98,29.84,15,3,28,5.02
2013-6-9,90,79,72,80,70,64,76,74,71,29.98,29.89,11,2,24,0.66
2013-6-10,91,81,75,81,71,66,76,74,71,29.97,29.89,14,2,27,0.05
2013-6-11,90,81,76,80,72,67,75,74,71,29.96,29.89,9,1,15,0.01
2013-6-12,92,81,74,81,72,65,75,73,71,29.96,29.88,8,1,25,0.41
2013-6-13,89,81,75,79,72,66,75,74,71,29.92,29.80,9,2,18,0.00
2013-6-14,87,82,77,76,72,68,75,73,71,29.84,29.75,11,2,20,0.00
2013-6-15,89,81,75,79,72,66,75,73,72,29.92,29.81,9,1,19,0.02
2013-6-16,89,80,76,78,71,68,75,75,72,29.95,29.90,7,2,13,0.00
2013-6-19,89,83,76,79,73,67,74,73,72,29.92,29.85,13,1,22,0.50
2013-6-20,91,82,75,80,72,66,75,73,71,29.97,29.89,9,1,20,0.49
2013-6-21,90,78,73,79,69,65,75,74,71,29.99,29.92,14,1,27,0.37
2013-6-22,93,80,73,81,71,64,75,73,69,29.99,29.92,9,1,19,0.43
2013-6-23,88,78,74,78,69,66,75,74,71,30.00,29.93,5,1,12,0.00
2013-6-25,81,77,76,71,68,67,74,74,73,29.97,29.93,5,1,19,0.00
2013-6-26,91,79,74,80,70,65,75,74,71,29.95,29.89,10,1,25,0.00
2013-6-27,92,80,72,81,70,63,75,73,71,29.93,29.83,12,1,22,0.70
2013-6-28,88,82,75,78,73,66,75,74,71,29.87,29.74,12,3,23,0.01
2013-6-29,87,81,76,77,72,67,75,74,72,29.77,29.69,18,2,35,0.94
2013-6-30,87,79,77,77,70,68,76,75,72,29.74,29.70,12,1,24,0.06
2013-7-1,75,74,74,67,66,66,76,75,75,29.87,29.84,8,2,14,0.40
2013-7-2,89,78,74,78,69,66,76,74,71,29.97,29.85,12,2,25,0.31
2013-7-3,89,77,74,79,69,66,76,75,72,30.00,29.91,11,3,29,0.95
2013-7-4,90,78,74,79,69,65,76,74,71,30.02,29.93,12,2,25,0.18
2013-7-5,89,78,74,79,70,65,75,74,71,30.02,29.93,15,3,35,0.67
2013-7-6,91,82,74,80,72,66,76,73,70,29.99,29.89,11,3,20,0.00
2013-7-7,91,82,76,80,73,67,75,73,70,29.99,29.89,14,3,28,0.01
2013-7-14,86,79,74,76,70,65,75,74,72,29.95,29.87,9,2,16,0.06
2013-7-29,95,86,78,83,76,69,74,72,70,30.02,29.92,10,1,22,0.00
2013-7-30,94,82,75,83,73,67,75,73,70,30.05,29.94,7,1,20,0.00
2013-7-31,93,82,77,81,73,68,75,74,70,30.01,29.87,14,1,26,0.23
2013-8-1,92,82,76,81,72,67,75,73,70,29.93,29.82,8,1,18,0.02
2013-8-2,90,82,75,80,72,66,75,73,71,29.93,29.83,11,1,19,0.01
2013-8-3,90,83,77,80,73,69,75,74,71,29.98,29.89,11,2,19,0.00
2013-8-4,87,82,78,77,73,69,75,74,73,29.98,29.89,6,1,24,0.41
2013-8-5,91,85,80,81,76,71,74,73,71,29.92,29.82,9,2,18,0.00
2013-8-6,90,83,74,80,73,66,75,74,72,29.87,29.77,11,1,33,1.38
2013-8-7,92,81,74,81,72,66,75,74,71,29.84,29.77,15,2,25,1.46
2013-8-8,94,82,76,82,73,68,75,73,70,29.90,29.80,9,2,21,0.01
2013-8-9,92,80,74,81,71,66,75,74,70,29.93,29.84,11,1,27,0.26
2013-8-10,93,83,74,83,73,65,75,73,70,29.99,29.90,7,1,16,0.00
2013-8-11,94,84,76,83,75,67,75,73,70,30.02,29.92,8,2,15,0.00
2013-8-12,94,89,81,83,78,71,73,71,70,29.94,29.87,6,2,12,0.00
2013-8-13,95,84,75,83,74,67,75,73,70,29.94,29.81,7,1,18,0.00
2013-8-14,90,84,78,79,74,70,75,73,71,29.89,29.80,9,2,16,0.00
2013-8-15,89,81,76,78,71,67,75,74,72,29.93,29.83,11,1,22,0.45
2013-8-16,93,84,78,82,74,69,75,73,71,29.92,29.83,10,0,24,0.46
2013-8-17,93,80,75,82,71,66,75,74,71,29.94,29.85,19,1,33,0.35
2013-8-18,91,81,75,81,72,66,75,74,71,29.98,29.86,15,2,34,1.34
2013-8-24,93,84,75,82,74,66,75,73,71,29.99,29.87,13,2,22,1.77
2013-8-25,89,79,74,78,70,66,76,74,72,30.02,29.93,11,2,23,0.01
2013-8-27,82,79,76,73,70,68,74,74,72,29.91,29.86,8,1,14,0.00
2013-8-28,91,79,74,80,70,65,75,74,70,29.93,29.86,11,1,26,0.00
2013-8-29,91,81,74,81,72,66,75,73,70,29.92,29.81,8,1,15,0.00
2013-8-30,89,82,77,79,72,68,75,74,71,29.87,29.77,8,1,15,0.02
2013-8-31,89,82,76,79,72,67,75,73,71,29.86,29.77,9,1,17,0.00
2013-9-1,91,81,75,80,72,66,75,74,71,29.87,29.80,12,1,21,0.19
2013-9-3,91,84,75,81,74,66,75,73,71,29.92,29.81,7,0,20,0.37
2013-9-4,93,80,75,82,71,66,75,74,71,29.95,29.84,7,1,25,0.06
2013-9-5,95,81,75,83,72,66,75,73,70,29.97,29.86,11,1,20,0.00
2013-9-6,94,82,74,84,72,66,75,74,70,29.93,29.80,16,1,28,0.29
2013-9-7,92,80,73,81,71,64,75,74,70,29.90,29.78,9,2,26,0.01
2013-9-8,91,81,73,80,72,65,75,73,70,29.84,29.73,7,1,15,0.02
2013-9-11,90,84,75,79,74,66,74,72,70,29.93,29.85,14,5,27,0.01
2013-9-12,87,78,73,77,69,65,75,74,72,29.90,29.76,7,1,15,0.67
2013-9-13,90,79,72,79,70,64,76,74,71,29.79,29.69,13,0,28,0.37
2013-9-14,93,82,74,82,73,66,75,73,70,29.84,29.72,11,1,27,0.01
2013-9-15,93,79,71,82,70,63,75,74,71,29.96,29.83,20,3,43,2.08
2013-9-16,91,78,74,80,69,65,75,74,71,29.93,29.86,15,2,26,0.02
2013-9-17,91,78,74,80,70,65,76,74,71,29.92,29.82,12,2,24,0.17
2013-9-18,90,79,75,79,70,66,75,74,71,29.90,29.82,13,2,26,0.51
2013-9-19,89,80,74,79,70,66,75,74,71,29.92,29.83,11,2,21,0.00
2013-9-20,89,80,74,78,71,65,75,73,70,29.90,29.77,7,2,15,0.00
2013-9-21,88,79,71,77,70,62,75,73,71,29.81,29.66,10,2,17,0.00
2013-9-22,88,81,75,78,72,66,75,73,71,29.73,29.64,14,3,27,0.00
2013-9-23,81,78,76,72,69,68,76,75,74,29.83,29.71,8,1,15,3.10
2013-9-24,78,76,74,69,68,66,76,76,75,29.84,29.74,10,2,18,1.87
2013-9-25,80,76,72,72,67,63,76,75,74,29.83,29.67,14,3,32,1.90
2013-9-26,88,82,76,78,73,68,75,74,71,29.74,29.67,12,4,24,0.00
2013-9-27,86,78,71,75,68,63,75,74,71,29.83,29.73,10,2,17,0.00
2013-9-28,89,78,72,78,69,64,75,73,70,29.87,29.78,11,3,22,0.01
2013-9-29,89,79,71,78,70,63,75,73,69,29.87,29.76,6,1,15,0.00
2013-9-30,90,80,71,78,70,62,75,73,70,29.87,29.78,6,1,13,0.00
2013-10-1,91,81,72,80,71,64,75,73,70,29.92,29.83,8,3,16,0.00
2013-10-2,89,80,72,78,70,64,75,73,71,29.92,29.83,10,3,18,0.00
2013-10-3,90,80,73,79,70,64,75,73,70,29.93,29.84,8,2,16,0.00
2013-10-4,90,81,74,78,71,66,75,73,70,29.95,29.86,6,1,14,0.00
2013-10-5,90,80,73,79,71,65,75,73,70,29.93,29.80,6,1,16,0.00
2013-10-6,89,80,72,79,70,64,75,73,70,29.86,29.74,9,1,16,0.00
2013-10-7,85,79,74,76,70,65,75,74,73,29.75,29.64,17,5,33,0.49
2013-10-8,85,81,76,75,71,66,74,73,72,29.82,29.69,10,4,21,0.00
2013-10-9,80,75,69,70,66,61,75,74,73,29.91,29.81,8,1,14,0.00
2013-10-10,86,75,66,75,66,58,75,73,71,29.93,29.84,4,1,11,0.00
2013-10-11,73,70,68,64,62,60,75,75,74,29.88,29.84,0,0,0,0.00
2013-10-13,73,72,71,63,62,62,73,73,72,29.93,29.93,0,0,1,0.00
2013-10-14,85,76,66,74,66,58,75,73,70,29.93,29.80,5,1,12,0.00
2013-10-15,84,75,68,73,66,60,75,73,71,29.88,29.77,4,1,12,0.00
2013-10-16,84,78,74,74,69,64,74,73,71,29.85,29.78,6,1,13,0.00
2013-10-18,89,84,0,85,82,48,95,90,75,29.86,29.77,6,2,14,0.00
2013-10-19,89,85,79,86,82,76,94,92,91,29.83,29.75,9,3,18,0.00
2013-10-20,88,81,0,86,82,73,96,89,91,29.84,29.75,5,3,12,0.00
2013-10-21,87,49,0,84,83,76,95,53,91,29.89,29.80,6,2,15,0.00
2013-10-22,86,85,77,84,82,74,95,92,91,29.83,29.70,11,5,22,0.00
2013-10-23,84,80,74,82,78,72,93,92,89,29.87,29.69,9,6,18,0.01
2013-10-27,0,0,0,75,75,75,0,0,100,29.99,29.98,0,0,0,0.00
2013-10-28,84,51,0,81,76,59,94,57,89,30.06,29.96,5,1,11,0.00
2013-10-29,85,82,65,81,79,62,95,90,89,30.10,29.99,9,3,25,0.00
2013-10-30,85,82,67,82,79,64,95,91,90,30.10,29.95,9,4,19,0.00
2013-11-1,80,77,75,78,75,74,95,94,93,29.79,29.77,1,0,5,0.00
2013-11-2,78,72,66,76,71,64,96,95,92,29.86,29.71,12,1,26,0.25
2013-11-3,77,68,61,73,65,59,95,91,88,29.99,29.85,9,3,17,0.00
2013-11-4,81,69,59,77,67,57,94,92,90,30.02,29.95,15,6,26,0.00
2013-11-5,84,74,66,81,72,65,95,93,91,30.01,29.92,13,7,24,0.02
2013-11-6,85,76,70,82,74,68,95,93,90,29.98,29.87,7,3,15,0.00
2013-11-10,84,78,70,80,75,68,94,92,91,30.03,29.93,8,2,16,0.01
2013-11-11,83,74,67,80,72,66,95,93,91,30.03,29.93,6,2,15,0.00
2013-11-12,80,72,66,77,70,64,95,94,92,29.99,29.88,5,1,15,0.00
2013-11-13,70,63,56,68,61,54,93,92,91,30.17,29.95,13,7,24,0.00
2013-11-16,78,74,71,76,72,69,95,93,92,29.99,29.90,11,5,20,0.01
2013-11-17,86,76,69,83,74,68,95,93,91,29.95,29.86,6,1,16,0.00
2013-11-18,82,73,69,79,72,67,95,94,92,29.90,29.81,3,0,10,0.00
2013-11-19,82,75,69,80,73,68,95,94,92,29.84,29.75,6,1,10,0.02
2013-11-20,84,73,66,81,71,64,95,94,92,29.96,29.83,8,3,14,0.10
2013-11-24,61,60,60,59,58,58,93,93,93,30.07,0.00,7,6,12,0.10
2013-11-25,77,69,61,74,67,59,94,92,91,30.09,29.93,16,8,29,0.00
2013-11-26,82,75,68,80,73,66,95,94,92,29.93,29.66,11,5,32,0.36
2013-11-27,74,66,52,73,64,50,95,93,91,30.06,29.63,17,8,39,0.08
2013-11-28,66,60,53,63,58,52,94,92,90,30.21,30.10,5,2,12,0.00
2013-11-29,72,61,52,70,59,50,95,93,91,30.21,30.12,11,5,17,0.00
2013-11-30,76,65,55,73,63,53,95,94,92,30.18,30.04,11,4,19,0.00
2013-12-1,76,66,61,74,64,59,96,95,92,30.06,29.87,7,2,15,0.00
2013-12-2,70,65,60,67,63,59,96,94,92,29.87,29.74,4,1,10,0.02
2013-12-3,77,69,61,74,67,60,95,94,92,29.86,29.77,7,1,16,0.00
2013-12-4,83,72,64,80,70,62,95,94,91,29.95,29.84,9,2,19,0.01
2013-12-5,82,76,68,79,74,66,95,93,91,30.05,29.95,7,2,16,0.01
2013-12-6,84,74,65,82,72,64,96,94,91,30.05,29.95,7,1,19,0.01
2013-12-7,85,73,65,82,71,64,96,94,90,30.11,30.00,5,0,13,0.00
2013-12-8,84,73,65,81,71,63,96,94,90,30.09,29.96,10,2,19,0.01
2013-12-9,84,73,65,81,71,64,96,94,90,30.06,29.96,6,1,17,0.00
2013-12-10,82,72,63,79,70,61,96,94,91,30.04,29.97,9,1,19,0.01
2013-12-11,84,72,64,82,70,63,95,94,91,30.12,30.02,8,2,18,0.01
2013-12-13,76,70,62,73,68,60,94,92,90,30.13,29.98,10,5,19,0.00
2013-12-14,82,73,62,80,71,61,95,94,92,29.98,29.84,8,3,26,0.00
2013-12-15,76,71,61,74,69,60,95,94,92,30.01,29.79,12,4,27,0.27
2013-12-16,66,58,50,63,56,49,95,93,90,30.10,29.98,6,2,12,0.00
2013-12-17,74,57,46,71,55,44,94,93,90,30.13,30.02,5,1,10,0.00
2013-12-18,73,59,48,69,57,46,94,91,88,30.16,30.08,7,1,16,0.00
2013-12-19,77,68,61,74,66,59,94,91,89,30.09,30.03,7,2,20,0.00
2013-12-20,83,71,59,80,68,57,94,93,91,30.06,29.95,11,3,24,0.00
2013-12-21,85,75,69,82,73,67,95,93,91,30.00,29.89,8,2,22,0.00
2013-12-22,84,75,70,81,73,68,95,94,92,30.01,29.93,6,2,23,0.01
2013-12-23,83,75,69,80,73,67,96,94,92,30.04,29.97,10,2,23,0.00
2013-12-24,74,66,51,73,63,49,95,92,89,30.13,29.99,10,4,21,0.01
2013-12-25,60,51,49,58,49,47,93,92,92,30.12,30.06,6,1,11,0.00
2013-12-26,79,72,61,76,70,59,94,92,91,30.08,29.95,9,3,15,0.00
2013-12-27,77,68,62,75,66,60,95,94,92,30.12,30.00,9,6,15,0.00
2013-12-28,81,73,65,78,71,64,95,94,92,30.09,29.87,15,6,24,0.00
2013-12-29,77,72,65,75,70,64,95,95,94,29.89,29.77,13,3,33,0.28
2013-12-30,66,64,62,64,62,61,95,94,94,30.07,29.89,3,1,10,0.00
2013-12-31,63,61,60,61,59,58,95,94,92,30.17,30.03,8,1,13,0.00